Weather Roundup
Issued by NWS

Home | Current Version | Previous Version | Graphics & Text | Print | Product List | Glossary Off
Versions: 1 2 3 4 5 6 7 8 9 10 11 12 13 14 15 16 17 18 19 20 21 22 23 24 25 26 27 28 29 30 31 32 33 34 35 36 37 38 39 40 41 42 43 44 45 46 47 48 49 50

000
NZUS93 KARX 271910
HRRWXR

CURRENT HOURLY OBSERVATIONS ACROSS
MUCH OF THE UPPER MISSISSIPPI VALLEY
NATIONAL WEATHER SERVICE LA CROSSE WI
100 PM CST THU NOV 27 2014


...SOUTHEAST MINNESOTA...


CITY           SKY/WX    TMP DP  RH WIND       PRES   REMARKS
ROCHESTER      SUNNY      3  -5  69 NW6       30.42F WCI  -8
ROCHESTER/MAYO FAIR       6  -3  64 W6        30.43F WCI  -4
WINONA         SUNNY     12   1  62 W5        30.47F WCI   4
AUSTIN         SUNNY      1  -6  71 NW5       30.42F WCI  -8
ALBERT LEA     SUNNY      1  -6  71 NW3       30.43F
DODGE CENTER   SUNNY      3  -4  72 NW5       30.41F WCI  -6
PRESTON        SUNNY      5  -3  68 NW7       30.42F WCI  -7
OWATONNA       SUNNY      0  -6  78 CALM      30.44F
FARIBAULT      SUNNY      7  -6  56 CALM      30.45F
$$

...ELSEWHERE IN MINNESOTA...


CITY           SKY/WX    TMP DP  RH WIND       PRES   REMARKS
MINNEAPOLIS    SUNNY      8  -4  58 CALM      30.47F
INTNL FALLS    SUNNY      1  -7  68 CALM      30.38F
DULUTH         SUNNY      6  -7  54 NW7       30.35F WCI  -6
RED WING         N/A     10  -2  56 W8        30.46F WCI  -1
REDWOOD FALLS  SUNNY     -1  -6  79 SW6       30.47F WCI -13
MANKATO        SUNNY      1  -9  60 CALM      30.47F
WORTHINGTON    SUNNY      5  -2  72 SE6       30.40F WCI  -6
FAIRMONT       SUNNY      1  -8  66 CALM      30.45F
$$

...SOUTHWEST WISCONSIN...


CITY           SKY/WX    TMP DP  RH WIND       PRES   REMARKS
LA CROSSE      SUNNY     13   1  59 N10       30.46F WCI   0
PRAIRIE DU CHI SUNNY     16  -2  44 NW8       30.44S WCI   5
BOSCOBEL       SUNNY     18   2  49 NW8       30.42F WCI   8
LONE ROCK      SUNNY     21   6  52 W9        30.40S WCI  11
PLATTEVILLE    SUNNY     18   3  51 NW9       30.38F WCI   7
FORT MC COY    SUNNY     13   2  60 NW6       30.43F WCI   4
CAMP DOUGLAS   SUNNY     14   6  71 W10       30.39F WCI   1
VIROQUA        FAIR      12   1  63 W7        30.37F WCI   1
WIS DELLS      MOSUNNY   15   7  68 N6        30.37S WCI   7
$$

...ELSEWHERE IN WISCONSIN...


CITY           SKY/WX    TMP DP  RH WIND       PRES   REMARKS
MILWAUKEE      CLOUDY    23  13  65 NW13      30.33S WCI  11
MADISON        MOSUNNY   20   9  62 NW9       30.36F WCI   9
GREEN BAY      SUNNY     18   6  59 NW12      30.35S WCI   5
EAU CLAIRE     SUNNY      8  -2  63 W5        30.43F WCI   0
BLACK RVR FLS  FAIR      12   0  57 W6        30.42F WCI   3
MEDFORD        SUNNY     10   1  64 NW6       30.33S WCI   1
WAUSAU         SUNNY     13   2  61 NW8       30.32F WCI   2
WIS RAPIDS     SUNNY     13   3  64 NW5       30.38F WCI   5
MARSHFIELD     SUNNY     10   0  63 W10       30.36S WCI  -4
RICE LAKE      SUNNY      7  -5  58 W3        30.43F
$$

...NORTHEAST IOWA...


CITY           SKY/WX    TMP DP  RH WIND       PRES   REMARKS
DECORAH        SUNNY      9  -4  56 N10       30.41F WCI  -6
MASON CITY     SUNNY      3  -4  72 NW6       30.47S WCI  -8
CHARLES CITY   SUNNY      5  -4  66 NW9       30.44F WCI  -9
OELWEIN        SUNNY      9   0  66 NW9       30.44F WCI  -5
$$

...ELSEWHERE IN IOWA...


CITY           SKY/WX    TMP DP  RH WIND       PRES   REMARKS
DES MOINES     CLOUDY    10  -2  58 NW8       30.51F WCI  -2
IOWA CITY      SUNNY     17   6  62 W14       30.48F WCI   3
FORT DODGE     SUNNY      3  -6  66 W5        30.49F WCI  -6
$$

...NORTHERN ILLINOIS...


CITY           SKY/WX    TMP DP  RH WIND       PRES   REMARKS
CHICAGO-OHARE  PTSUNNY   24  15  68 NW16      30.34R WCI  11
CHICAGO-MIDWAY CLOUDY    28  17  63 NW14      30.34R WCI  17
MOLINE         SUNNY     21   9  59 NW16      30.43S WCI   7
ROCKFORD       FLURRIES  23  15  71 NW13      30.38S WCI  11
PEORIA         CLOUDY    25  16  68 NW12      30.42S WCI  14
$$

NOTE: "FAIR" INDICATES FEW OR NO CLOUDS BELOW 12,000 FEET WITH NO
SIGNIFICANT WEATHER AND/OR OBSTRUCTIONS TO VISIBILITY. WIND
SPEEDS ARE IN MILES-PER-HOUR.



USA.gov is the U.S. government's official web portal to all federal, state and local government web resources and services.